Fort Sill, OK

3:02 AM CDT on August 24, 2017 (GMT -0500)
Post Army Air Field

Weather History for KFSI - November, 2011

Change the Weather History Date:

Thursday, November 3, 2011

  Actual Average Record
Temperature  
Mean Temperature 46 °F -  
Max Temperature 55 °F 64 °F 84 °F (2005)
Min Temperature 35 °F 41 °F 16 °F (1991)
Degree Days  
Heating Degree Days 20    
Moisture  
Dew Point 22 °F    
Average Humidity 45    
Maximum Humidity 67    
Minimum Humidity 22    
Precipitation  
Precipitation 0.00 in - - ()
Sea Level Pressure  
Sea Level Pressure 30.35 in    
Wind  
Wind Speed 15 mph (NNW)    
Max Wind Speed 21 mph    
Max Gust Speed 29 mph    
Visibility 10 miles    
Events      
Averages and records for this station are not official NWS values.
T = Trace of Precipitation, MM = Missing Value Source: NWS Daily Summary

Daily Weather History Graph

Daily Weather History Graph

Search for Another Location

Airport or City:

Trip Planner

Search our weather history database for the weather conditions in past years. The results will help you decide how hot, cold, wet, or windy it might be!

Date:

Astronomy

Nov. 03, 2011 Rise Set
Actual Time 7:55 AM CDT 6:38 PM CDT
Civil Twilight 7:29 AM CDT 7:04 PM CDT
Nautical Twilight 6:59 AM CDT 7:34 PM CDT
Astronomical Twilight 6:30 AM CDT 8:03 PM CDT
Moon 2:47 PM CDT (11/3) 1:25 AM CDT (11/3)
Length of Visible Light 11h 34m
Length of Day
10h 42m
First Quarter, 60% of the Moon is Illuminated
Nov 3
First Quarter
Nov 10
Full
Nov 18
Last Quarter
Nov 25
New
Dec 2
First Quarter

Hourly Weather History & Observations

Time (CDT) Temp. Windchill Dew Point Humidity Pressure Visibility Wind Dir Wind Speed Gust Speed Precip Events Conditions
12:55 AM 40.1 °F 30.7 °F 29.8 °F 67% 30.35 in 10.0 mi North 19.6 mph 25.3 mph N/A   Clear
1:55 AM 39.6 °F 31.7 °F 29.1 °F 66% 30.36 in 10.0 mi NNW 13.8 mph - N/A   Clear
2:55 AM 40.1 °F 34.7 °F 28.9 °F 64% 30.37 in 10.0 mi NW 8.1 mph - N/A   Clear
3:55 AM 40.5 °F 30.9 °F 27.3 °F 59% 30.36 in 10.0 mi NNW 20.7 mph 26.5 mph N/A   Clear
4:55 AM 39.4 °F 30.4 °F 26.2 °F 59% 30.36 in 10.0 mi NNW 17.3 mph 28.8 mph N/A   Clear
5:55 AM 38.7 °F 29.1 °F 25.7 °F 60% 30.38 in 10.0 mi NNW 18.4 mph 25.3 mph N/A   Clear
6:55 AM 37.6 °F 28.1 °F 25.3 °F 61% 30.38 in 10.0 mi NNW 17.3 mph 26.5 mph N/A   Clear
7:55 AM 36.9 °F 27.1 °F 24.8 °F 62% 30.38 in 10.0 mi North 17.3 mph 21.9 mph N/A   Clear
8:55 AM 38.3 °F 28.1 °F 24.1 °F 57% 30.39 in 10.0 mi North 20.7 mph 26.5 mph N/A   Clear
9:55 AM 42.8 °F 34.3 °F 23.9 °F 47% 30.41 in 10.0 mi North 19.6 mph 26.5 mph N/A   Clear
10:55 AM 46.2 °F 38.7 °F 21.6 °F 38% 30.43 in 10.0 mi North 19.6 mph 28.8 mph N/A   Clear
11:55 AM 49.1 °F - 19.4 °F 31% 30.42 in 10.0 mi North 18.4 mph 28.8 mph N/A   Clear
12:55 PM 51.4 °F - 18.3 °F 27% 30.39 in 10.0 mi North 18.4 mph 24.2 mph N/A   Clear
1:55 PM 52.7 °F - 19.6 °F 27% 30.36 in 10.0 mi North 16.1 mph - N/A   Clear
2:55 PM 54.1 °F - 17.6 °F 24% 30.34 in 10.0 mi North 10.4 mph 18.4 mph N/A   Clear
3:55 PM 55.0 °F - 17.2 °F 23% 30.31 in 10.0 mi North 12.7 mph 16.1 mph N/A   Clear
4:55 PM 55.0 °F - 16.9 °F 22% 30.30 in 10.0 mi North 8.1 mph - N/A   Clear
5:55 PM 53.6 °F - 16.7 °F 23% 30.30 in 10.0 mi North 9.2 mph - N/A   Clear
6:55 PM 49.5 °F - 16.7 °F 27% 30.30 in 10.0 mi NNW 3.5 mph - N/A   Clear
7:55 PM 47.7 °F - 18.0 °F 31% 30.29 in 10.0 mi NNW 3.5 mph - N/A   Clear
8:55 PM 43.9 °F - 20.3 °F 39% 30.29 in 10.0 mi Calm Calm - N/A   Clear
9:55 PM 41.4 °F - 21.2 °F 45% 30.29 in 10.0 mi Calm Calm - N/A   Clear
10:55 PM 38.5 °F 36.1 °F 22.3 °F 52% 30.29 in 10.0 mi North 3.5 mph - N/A   Clear
11:55 PM 35.8 °F 33.0 °F 24.6 °F 64% 30.28 in 10.0 mi North 3.5 mph - N/A   Clear